This demonstration page uses our WeatherBlox Daily Observations layout. Learn more.

Left ArrowRight Arrow

Hourly Observations for October 4, 2016

Temp ( °F °C ) Dew Point ( °F °C ) Humidity (%) Winds ( mph kmh ) Pressure ( in mb ) Visibility ( mi km ) Precip ( " mm )
12:51 am 00:51 Clear 60 15.6 24 -4.4 25 25 WNW 7 11 29.73 1007 10 16 0.00 0.00
1:51 am 01:51 Clear 57 13.9 27 -2.8 32 32 WNW 8 13 29.73 1007 10 16 0.00 0.00
2:51 am 02:51 Clear 56 13.3 30 -1.1 37 37 VRB 3 6 29.73 1007 10 16 0.00 0.00
3:51 am 03:51 Clear 51 10.6 31 -0.6 46 46 Calm 29.75 1007 10 16 0.00 0.00
4:51 am 04:51 undefined 50 10 32 0 50 50 ESE 3 6 29.77 1008 10 16 0.00 0.00
5:51 am 05:51 Clear 50 10 31 -0.6 48 48 E 3 6 29.79 1009 10 16 0.00 0.00
6:51 am 06:51 Sunny 52 11.1 32 0 47 47 Calm 29.81 1010 10 16 0.00 0.00
7:51 am 07:51 Sunny 58 14.4 34 1.1 41 41 Calm 29.82 1010 10 16 0.00 0.00
8:51 am 08:51 Sunny 65 18.3 28 -2.2 25 25 Calm 29.82 1010 10 16 0.00 0.00
9:51 am 09:51 Sunny 67 19.4 26 -3.3 21 21 Calm 29.82 1010 10 16 0.00 0.00
10:51 am 10:51 Sunny 72 22.2 24 -4.4 17 17 W 5 7 29.81 1009 10 16 0.00 0.00
11:51 am 11:51 Sunny 74 23.3 21 -6.1 14 14 WSW 6 9 29.79 1009 10 16 0.00 0.00
12:51 pm 12:51 Sunny 77 25 24 -4.4 14 14 W 12 19 29.77 1008 10 16 0.00 0.00
1:51 pm 13:51 Sunny 79 26.1 25 -3.9 14 14 VRB 5 7 29.75 1007 10 16 0.00 0.00
2:51 pm 14:51 Sunny 81 27.2 25 -3.9 13 13 NW 10 17 29.73 1007 10 16 0.00 0.00
3:51 pm 15:51 Sunny 81 27.2 27 -2.8 14 14 W 8 13 29.74 1007 10 16 0.00 0.00
4:51 pm 16:51 Sunny 79 26.1 29 -1.7 16 16 NNW 9 15 29.73 1007 10 16 0.00 0.00
5:51 pm 17:51 Sunny 76 24.4 30 -1.1 18 18 NW 10 17 29.75 1007 10 16 0.00 0.00
6:51 pm 18:51 Clear 68 20 31 -0.6 25 25 NW 8 13 29.77 1008 10 16 0.00 0.00
7:51 pm 19:51 Clear 62 16.7 32 0 32 32 WNW 6 9 29.78 1009 10 16 0.00 0.00
8:51 pm 20:51 Clear 63 17.2 31 -0.6 30 30 WNW 7 11 29.79 1009 10 16 0.00 0.00
9:51 pm 21:51 Clear 61 16.1 32 0 34 34 W 8 13 29.81 1009 10 16 0.00 0.00
10:51 pm 22:51 Clear 57 13.9 32 0 39 39 E 5 7 29.82 1010 10 16 0.00 0.00
11:51 pm 23:51 Clear 54 12.2 33 0.6 45 45 E 5 7 29.82 1010 10 16 0.00 0.00

Powered by AerisWeather